TimeMDT,TemperatureF,Dew PointF,Humidity,Sea Level PressureIn,VisibilityMPH,Wind Direction,Wind SpeedMPH,Gust SpeedMPH,PrecipitationIn,Events,Conditions,WindDirDegrees,DateUTC
12:52 AM,55.0,41.0,59,30.04,10.0,Calm,Calm,-,N/A,,Clear,0,2013-08-18 06:52:00
1:52 AM,54.0,41.0,62,30.02,10.0,East,6.9,-,N/A,,Clear,90,2013-08-18 07:52:00
2:52 AM,53.1,39.0,59,30.01,10.0,East,8.1,-,N/A,,Clear,100,2013-08-18 08:52:00
3:52 AM,51.1,39.0,63,30.02,10.0,ESE,6.9,-,N/A,,Clear,120,2013-08-18 09:52:00
4:52 AM,48.0,39.9,74,30.05,10.0,South,5.8,-,N/A,,Clear,190,2013-08-18 10:52:00
5:52 AM,44.1,39.9,85,30.08,10.0,Calm,Calm,-,N/A,,Clear,0,2013-08-18 11:52:00
6:52 AM,44.1,39.9,85,30.11,10.0,Calm,Calm,-,N/A,,Clear,0,2013-08-18 12:52:00
7:52 AM,53.1,42.1,66,30.13,10.0,West,3.5,-,N/A,,Clear,270,2013-08-18 13:52:00
8:52 AM,61.0,42.1,50,30.12,10.0,Calm,Calm,-,N/A,,Clear,0,2013-08-18 14:52:00
9:52 AM,68.0,44.1,42,30.10,10.0,NW,5.8,-,N/A,,Clear,320,2013-08-18 15:52:00
10:52 AM,72.0,42.1,34,30.10,10.0,Calm,Calm,-,N/A,,Clear,0,2013-08-18 16:52:00
11:52 AM,77.0,39.0,25,30.07,10.0,Variable,3.5,-,N/A,,Clear,0,2013-08-18 17:52:00
12:52 PM,81.0,39.0,22,30.04,10.0,WSW,8.1,-,N/A,,Clear,250,2013-08-18 18:52:00
1:52 PM,82.9,37.9,20,30.01,10.0,West,9.2,-,N/A,,Clear,260,2013-08-18 19:52:00
2:52 PM,81.0,39.0,22,30.01,10.0,WSW,10.4,-,N/A,,Clear,240,2013-08-18 20:52:00
3:52 PM,82.9,39.0,21,30.01,10.0,West,12.7,-,N/A,,Partly Cloudy,270,2013-08-18 21:52:00
4:03 PM,80.6,39.2,23,30.30,2.0,WSW,29.9,36.8,N/A,,Haze,240,2013-08-18 22:03:00
4:10 PM,80.6,37.4,21,30.30,1.2,WSW,25.3,36.8,N/A,,Haze,250,2013-08-18 22:10:00
4:14 PM,80.6,37.4,21,30.30,3.0,WSW,26.5,-,N/A,,Haze,250,2013-08-18 22:14:00
4:52 PM,77.0,39.9,26,30.04,10.0,West,17.3,-,N/A,,Clear,260,2013-08-18 22:52:00
5:52 PM,75.9,42.1,30,30.07,10.0,NW,12.7,20.7,N/A,,Clear,320,2013-08-18 23:52:00
6:52 PM,70.0,45.0,41,30.13,10.0,ESE,12.7,-,N/A,,Overcast,120,2013-08-19 00:52:00
7:52 PM,66.0,45.0,47,30.13,10.0,SE,15.0,-,0.00,,Scattered Clouds,130,2013-08-19 01:52:00
8:52 PM,63.0,45.0,52,30.12,10.0,SSW,3.5,-,N/A,,Clear,210,2013-08-19 02:52:00
9:52 PM,60.1,46.0,60,30.12,10.0,East,6.9,-,N/A,,Partly Cloudy,90,2013-08-19 03:52:00
10:52 PM,61.0,48.0,62,30.10,10.0,ESE,4.6,-,N/A,,Mostly Cloudy,110,2013-08-19 04:52:00
11:52 PM,60.1,48.0,64,30.08,10.0,SE,3.5,-,N/A,,Mostly Cloudy,130,2013-08-19 05:52:00